Skip to content

GuitarMania

(*.29.94.88) 조회 수 26013 댓글 17


올리는 김에 요것두.....^^
새로 수정했삼.....ㅋㅋ
wma로 바꾸었습니다.




http://www.guitarmania.org/z40/data/gowoon68/Triste_Santuario.wma
Comment '17'
  • 땡땡이 2007.07.05 14:42 (*.187.254.119)
    눈물이 뚝뚝 떨어지네요. 잘 들었습니다. 꾸벅
  • Jason 2007.07.05 14:56 (*.29.94.88)
    감사합니다. 저두 꾸뻑 ^^
  • 샤콘느1004 2007.07.05 17:12 (*.216.48.105)
    제목을 한글로 풀면 어케되나요... 혹시 슬픈예배당인가...
    망고레의 고백을 한번 들어보고싶다는 생각이 들었습니다.
  • Man_Wang 2007.07.05 17:34 (*.220.248.250)
    정확한지 모르겠지만 기타 치는 모습이 보이는거 같네 ㅋㅋㅋ
  • limnz 2007.07.05 19:05 (*.238.118.25)
    이 강한 압박... 찢어지는 애절함... 그리고 긴박함...
    이곡을 이렇게 표현력있게 연주한는 것....
    최고입니다.
  • 아이모레스 2007.07.05 22:07 (*.158.13.225)
    완전히 음반이네요~~~~^^ 이젠 스튜디오에서 녹음하신 것 같아요!!!!! ㅋㅋㅋ 추운 겨울 공사판 장작불 앞에서 50불짜리 기타를 들고 혜성같이 노가다 연주를 들고 나타나시더니만~~~^^ 이젠 귀족같은(?) 고급 연주로 우리를 또 한번 놀래키고 마네용~~~^^ 오늘 저를 포함한 몇사람... 기타 때려 칠지도 몰라요!!!!!!^^ 제이슨님 책임지세요~~~~
  • Jason 2007.07.06 08:05 (*.29.94.88)
    1004님 슬픈예배당이라고 제목에 붙였습니다.
    워낙 유명한곡이라...다들 아실줄알고....^^

    limnz님 좋으신말씀 감사합니다.
    이곡은 님처럼 아름다운 탄주소리에 제격인것 같습니다.

    아이모레스님 ...애고~ 졸연인디...
    저는 님을 비롯하여 여러 고수님들의 연주듣고 많이 배우고 있습니다.
    격려의 말씀으로 삼겠습니다.

    솔직히 이곡하구 요거랑 같이 올린 작은 로망스가 같은 조로 되어있어서
    기냥 아무 생각없이 올려보았습니다.

    같은 조의 곡을 치니..운지도 겹치는 부분도 많아서 조금 수월하네요.^^
    감사합니다.
  • Jason 2007.07.06 08:10 (*.29.94.88)
    아차! 만왕아~놀자~ ㅋㅋ ^^

    나두 너가 글을 올릴때마다

    너의 모습을 떠올린단다 . ㅋㅋ 장난끼 섞인 귀여운 모습을....캬캬캬
  • Man_Wang 2007.07.06 09:01 (*.220.248.250)
    ㅋㅋㅋ 참내 맨날 형이랑 이렇게 노니깐 정말 내가 42살 맞는지 모르겠네 ㅋㅋㅋ 아이고 쑥스럽네^^
  • limnz 2007.07.06 19:57 (*.238.118.94)
    Jason님 말씀데로.... 한번 다시 연습해보고 싶네요
    근데 악보를 아무리 찾아도 찾지를 못하겠습니다.
    혹 악보를 얻을 수 있을까요 ... hanla@hanla.co.nz
  • Jason 2007.07.06 22:14 (*.29.94.88)
    limnz님 제가 책을 스켄해서리...
    조금만 기다려 주십시오...^^
  • 나그네 2007.07.07 00:22 (*.26.50.149)
    Jason님 저도 보내주실 순 없는지요 ^^
    nigaheboa@hanmail.net
    꼭 좀 부탁드리겠습니다 ㅎ
  • 오모씨 2007.07.07 01:06 (*.223.123.12)
    기타 초기에 칠 수 있는 정말 질 높은 곡이죠!
    멋진 연주 잘 들었어요!!^^
  • Jason 2007.07.07 08:34 (*.29.94.88)
    limnz님, 나그네님 보냈습니다.
  • Jason 2007.07.07 08:45 (*.29.94.88)
    우~
    잘못해서 바하의 가보트를.....보냈네여~ ㅋㅋ
    지송~
    다시 보냅니당
  • ldh2187 2007.07.07 11:23 (*.207.143.198)
    으음...여태까지 들어본 Jason님의 곡중 쵝오임다. Jason님의 내공은 limit 내공....

    저는 빠른곡은 잘 치는데 느린곡을 못칩니다.....
  • 나그네 2007.07.09 01:01 (*.26.50.149)
    잘 받았습니다^^ 감사합니다^^
?

List of Articles
번호 제목 글쓴이 날짜 조회 수
1841 Love Affair 6 2007.06.02 20404
1840 zapateado///rodrigo 13 김은미 2007.06.03 25882
1839 최후의 트레몰로 (리버브효과없는겁니다..;;) 4 file JoDaC 2007.06.09 20585
1838 최후의 트레몰로 입니다 ^^ 32 file JoDaC 2007.06.06 24996
1837 전설 11 file 최병욱 2007.06.06 24935
1836 I believe 13 file orpheus15 2007.06.08 20478
1835 Romance.3번. 10 file 우체국가는길 2007.06.08 25186
1834 Kiss the Rain 이루마 곡 (기타 연주) 44 file 아이모레스 2007.06.12 28244
1833 오 솔레미오 4 file 밀롱가. 2007.06.14 22781
1832 Recuerdos de la Alhambra -F. Tarrega 12 file Jason 2007.06.15 25118
1831 알함브라 다시녹음했습니다~ 14 file 최병욱 2007.06.16 23487
1830 [re] 소르 연습곡 6번-리버브를 넣어보았습니다. 1 file niceplace 2007.06.20 23350
1829 소르 연습곡 6번 8 file niceplace 2007.06.17 23366
1828 Romance.3번. 다시 올려요 6 file 우체국가는길 2007.06.17 27497
1827 뱃노래 - 코스트 12 file fernando 2007.06.19 24123
1826 유키구라모토의 Meditation 18 file 최병욱 2007.06.19 25444
1825 fredric hand의 연습곡 1번 4 file 루하기 2007.06.21 17197
1824 리브라소나티네 3.Fuoco-롤랑디용 27 file MSGr 2007.06.21 29869
1823 바흐 샤콘느 10 file 좁은길로 2007.06.26 25166
1822 쉘부르의 우산 3 file nice guy 2007.06.27 24320
1821 Koyunbaba - C. Domeniconi 25 file 진느 2007.06.27 21339
1820 F. Tarrega,Capricho Arabe 33 file Jason 2007.06.28 24031
1819 Agua e Vinho - Egberto Gismonti 18 file limnz 2007.06.29 23549
1818 BWV1006a 프렐류드 3 file 좁은길로 2007.06.29 23152
1817 이노래어떤가요? Pulo do Gato(P.Bellinati) 15 file MSGr 2007.07.01 28347
1816 L'HYMNE A L'AMOUR / E.PIAF 24 file April 2007.07.04 22613
1815 Kleine Romanze- L. Walker 10 file Jason 2007.07.05 22213
» Triste Santuario by Vincent Gomez-슬픈 예배당 17 file Jason 2007.07.05 26013
1813 대성당1악장 8 file 좁은길로 2007.07.05 21625
1812 이루마의 When the love falls 7 file 최병욱 2007.07.07 45247
1811 종소리 12 file 좁은길로 2007.07.07 25057
1810 소르의 마적입니다... 19 file 화가 2007.07.08 29715
1809 brahms-theme and variations 20 file 기타레타 2007.07.09 31339
1808 [영상] 엘레지 Elegie (메르츠 Mertz) 3 2007.07.09 24305
1807 이병우 - 달려 18 file 김상욱 2007.07.09 23430
1806 대성당2악장 4 file 좁은길로 2007.07.09 32901
1805 도적의 노래-ibach 연주 16 file 바하의꿈 2007.07.10 24373
1804 하프시 팟사 완주--! 4 file 좁은길로 2007.07.10 23031
1803 핑거스타일- Sun dance (Kotaro Oshio) 7 file 최병욱 2007.07.11 26856
1802 Giuliani-- Rossiniana No.1 (글로빌 아트홀 실황연주) 15 file LDH 2007.07.11 20011
1801 엔커리지먼트-소르 39 file 기타레타 2007.07.11 24176
1800 이 곡 제목이 뭔가요? 3 file -_ - 2007.07.12 20747
1799 헨델의 아리아 23 file 아이모레스 2007.07.12 24111
1798 G선상의 아리아 - J.S.BACH 43 file 기타레타 2007.07.13 24963
1797 이루마의 Kiss the Rain 6 file 최병욱 2007.07.13 24674
1796 Pierre Bensusan - 아도니스의 정원 12 file 찬찬 2007.07.14 25984
1795 Bach - BWV1007 Prelude & Allemande 16 file 김상욱 2007.07.14 23494
1794 Wonderful tonight 43 file - 情 - 2007.07.14 26681
1793 Variation on Theme of Mozart - F.Sor 32 file Jason 2007.07.15 24777
1792 월량대표아적심(月亮代表我的心) 29 이진성 2007.07.19 26656
1791 Fantasia Arabe by Sabicas 22 file Jason 2007.07.22 20432
1790 샤콘느 뒤에뒤부분 7 file 좁은길로 2007.07.23 21101
1789 유키 구라모토의 Lake Louise(새로운 편곡) 17 file 최병욱 2007.07.23 24367
1788 Aria no.1 - F. Kleynjans 11 file bradpitt 2007.07.24 24250
1787 Septiembre (Maximo Diego Pujol) 21 file 라일 2007.07.26 22924
1786 (이중주) Green Sleeves 20 file niceplace 2007.07.27 26396
1785 BWV1006a Prelude 7 file 좁은길로 2007.07.27 26542
1784 A. Piazzolla Quattro Stagioni (부에노스아이레스의 사계) 1. Primavera portend (봄) 8 file sgq 2007.07.27 24230
1783 A. Piazzolla Oblivion(망각) 3 file sgq 2007.07.27 23791
1782 A. Piazzolla Liebertango 1 file sgq 2007.07.27 24819
1781 P. Bellinati Baiao de Gude 서울기타콰르텟 4 file sgq 2007.07.27 24786
1780 사람이 꽃보다 아름다워~~~ 4 야매 2007.07.28 25004
1779 Fur Elise by L. Van Beethoven 62 file Jason 2007.07.28 28702
1778 부탁 김효석 2007.07.29 20086
1777 클레이앙스-로망스1번(이중주) 6 file 기타레타 2007.07.30 20995
1776 Lamento No.2 / F. Kleynjans 12 file 이진성 2007.08.01 22065
1775 The old rugged cross by G. Bennard 10 file Jason 2007.08.02 23515
1774 로망스 no.1(이중주)-끌레앙 16 file 체르니 2007.08.04 33243
1773 Sleeprs, Awake! 눈뜨라부르는소리있어 7 file 좁은길로 2007.08.05 21543
1772 Estudio No.12 / F. Sor 13 file 이진성 2007.08.06 24109
1771 Partners in Praise / 안신영님 편곡 10 file orpheus15 2007.08.07 21079
1770 알베니즈-야자나무 아래에서 13 file 기타레타 2007.08.08 30059
1769 로드리고 // 고풍스런 티엔토 30 file 진느 2007.08.08 26690
1768 Sor Etude#6 10 file 밀롱가. 2007.08.10 21747
1767 Classical Gas/Mason Williams -클래식컬 개스 23 file Jason 2007.08.10 24177
1766 Adelita 2 file sky600 2007.08.12 16252
1765 maria luisa 6 file sky600 2007.08.12 25865
1764 sunflower 14 file 한사랑 2007.08.13 22568
1763 Tango En Skai 11 file 좁은길로 2007.08.13 25506
1762 바흐 // Choral from cantata147 arr.David Russell 31 file 진느 2007.08.14 22169
1761 milonga 6 file 2007.08.15 23361
1760 [동영상] Barrios - Una Limosna por el amor de Dios (최후의 트레몰로) 39 file 김상욱 2007.08.17 29261
1759 텅 빈 놀이터 II by devilous 9 file devilous 2007.08.20 22020
1758 Sleepers, Awake! from Cantata BWV140 9 file April 2007.08.20 21987
1757 Yuichi Watanabe - Morning Dew 5 file 2007.08.21 25609
1756 Falla--ThreeCorneredHat(KimMoonHyung & Chung Sehee) 7 file 바하의꿈 2007.08.21 26588
1755 망고레의 Contemplacion (깊은 그리움) 24 file 아이모레스 2007.08.22 24229
1754 헨델의 대장간변주?^^ Handel--Blacksmith Variations 19 file 바하의꿈 2007.08.23 25535
1753 F. Sor의 인커리지먼트 18 file 바하의꿈 2007.08.24 26330
1752 알함브라궁전의 추억 12 file 정면 2007.08.24 22964
1751 죄송한! 탕고 안 스까이 바이 로랑디앙 (조율 맞춰 재업)ㅠ 8 file buyho 2007.08.26 18200
1750 Stairway to Heaven, Classical/Unplugged version 기악 독주 7 file 2007.08.28 26966
1749 Les Feuilles Mortes (고엽) - Joseph Kosma 20 file 고정석 2007.08.29 23143
1748 Beautiful Dreamer(토스토) 7 file 까치 2007.08.30 24861
1747 줄리아니 기타협주곡 5 file buyho 2007.09.04 22200
1746 가을편지 / 안형수 편곡 15 file orpheus15 2007.09.04 24298
1745 녹음은 어떻게 하나요? 2 소르초이 2007.09.05 21314
1744 TOmmy Emmanuel-Angelina 10 file 좁은길로 2007.09.05 20513
1743 내마음의 보석상자(동영상) 7 야매 2007.09.07 25953
1742 Venus(동영상) 4 야매 2007.09.07 28801
Board Pagination ‹ Prev 1 ... 11 12 13 14 15 16 17 18 19 20 21 22 23 24 25 26 27 28 29 30 ... 39 Next ›
/ 39

나눔글꼴 설치 안내


이 PC에는 나눔글꼴이 설치되어 있지 않습니다.

이 사이트를 나눔글꼴로 보기 위해서는
나눔글꼴을 설치해야 합니다.

설치 취소

Designed by sketchbooks.co.kr / sketchbook5 board skin

Sketchbook5, 스케치북5

Sketchbook5, 스케치북5

Sketchbook5, 스케치북5

Sketchbook5, 스케치북5

Powered by Xpress Engine / Designed by hikaru100

abcXYZ, 세종대왕,1234

abcXYZ, 세종대왕,1234